Regional Weather Roundup
Issued by NWS

Home | Current Version | Previous Version | Graphics & Text | Print | Product List | Glossary On
Versions: 1 2 3 4 5 6 7 8 9 10 11 12 13 14 15 16 17 18 19 20 21 22 23 24 25 26 27 28 29 30 31 32 33 34 35 36 37 38 39 40 41 42 43 44 45 46 47 48 49 50
593
ASUS43 KMPX 060510
RWRMN
WEATHER ROUNDUP FOR MINNESOTA
NATIONAL WEATHER SERVICE TWIN CITIES/CHANHASSEN MN
1100 PM CST FRI FEB 05 2016


NOTE: "FAIR" INDICATES FEW OR NO CLOUDS BELOW 12,000 FEET WITH NO
SIGNIFICANT WEATHER AND/OR OBSTRUCTIONS TO VISIBILITY. N/A MEANS
CURRENT SKY AND/OR WEATHER CONDITIONS ARE NOT AVAILABLE.

MNZ060>063-068>070-060600-
   Twin Cities Metro

CITY           SKY/WX    TMP DP  RH WIND       PRES   REMARKS
TWIN CITIES    CLOUDY    26  21  81 SW6       30.18F WCI  19
ST PAUL        CLOUDY    26  21  81 SW6       30.20S WCI  19
CRYSTAL        CLOUDY    26  21  81 SW7       30.16F WCI  18
BLAINE         MOCLDY    27  23  86 SW5       30.16F WCI  21
LAKEVILLE      CLOUDY    25  21  86 SW3       30.18S
EDEN PRAIRIE   CLOUDY    26  21  81 SW7       30.17F WCI  18
SOUTH ST PAUL  MOCLDY    27  22  83 SW3       30.18F
LAKE ELMO      CLOUDY    27  23  86 S3        30.19S
$$
MNZ001>005-007-008-013>017-022>024-027-028-060600-
   Northwest Minnesota

CITY           SKY/WX    TMP DP  RH WIND       PRES   REMARKS
BEMIDJI        CLOUDY    17  16  94 W5        30.07S FOG     WCI  10
HALLOCK        CLOUDY    14  10  85 SE8       30.04F WCI   3
ROSEAU         CLOUDY    18  12  79 SW6       30.03F WCI   9
WARROAD        CLOUDY    19  16  86 SW6       30.04F WCI  11
THIEF RVR FALL CLOUDY    14   9  79 S6        30.07F WCI   5
CROOKSTON      CLOUDY    18  18 100 S6        30.09S WCI   9
FOSSTON        CLOUDY    10   9  92 S6        30.08S FOG     WCI   1
DETROIT LAKES  FOG       23  21  93 SW6       30.10F VSB 1/2 WCI  16
MOORHEAD       CLOUDY    12  10  92 SE5       30.11F WCI   4
PARK RAPIDS    CLOUDY    20  16  84 W8        30.08F WCI  10
MAHNOMEN       CLOUDY    18  16  93 S6        30.08F FOG     WCI  10
$$
MNZ006-009>011-018-025>026-060600-
   North Central Minnesota

CITY           SKY/WX    TMP DP  RH WIND       PRES   REMARKS
BAUDETTE       CLOUDY    20  14  77 SW5       30.03F WCI  13
FLAG ISLAND    CLOUDY    18  14  86 CALM      30.02F
INTL FALLS     CLOUDY    21  15  78 W8        30.03S WCI  11
WASKISH        MOCLDY    18  16  93 SW6       30.02F WCI   9
LONGVILLE      CLOUDY    21  18  86 SW3       30.08F
GRAND RAPIDS   CLOUDY    23  18  80 W5        30.07S WCI  17
CRANE LAKE     CLOUDY    19  16  86 S2        30.05F
ORR            CLOUDY    21  16  79 CALM      30.01F
COOK           CLOUDY    21  18  86 W6        30.04F WCI  14
WALKER         MOCLDY    17  16  93 SW3       30.07F
$$
MNZ012-019>021-037-060600-
   Northeast Minnesota

CITY           SKY/WX    TMP DP  RH WIND       PRES   REMARKS
DULUTH         CLOUDY    23  14  68 W13       30.05F WCI  11
ELY            CLOUDY    21  18  86 CALM      30.02F
HIBBING        CLOUDY    23  17  78 SW3       30.04F
EVELETH        CLOUDY    25  16  68 SW6       30.05S WCI  18
DULUTH HARBOR  CLOUDY    27  18  69 SW13      30.11F WCI  16
TWO HARBORS    CLOUDY    25  16  68 SW5       30.04F WCI  19
SILVER BAY     CLOUDY    25  16  68 SW3       30.03F
GRAND MARAIS     N/A     25  16  68 SW7       30.06F WCI  17
G MARAIS ARPRT CLOUDY    18  12  79 W10       29.98F WCI   6
$$
MNZ029>031-032-039>041-046>048-054>057-064-060600-
   West Central Minnesota

CITY           SKY/WX    TMP DP  RH WIND       PRES   REMARKS
FERGUS FALLS   FOG       16  14  93 CALM      30.16S VSB 1/4
WHEATON        PTCLDY    18  18 100 S7        30.16F WCI   8
MORRIS         FOG       12  10  92 CALM      30.14S VSB<1/4
ALEXANDRIA     CLOUDY    24  22  91 W6        30.12F FOG     WCI  17
ELBOW LAKE     SNOW      13  11  93 SE3       30.13F VSB 1/2
WADENA         CLOUDY    19  18  93 W6        30.11S WCI  11
GLENWOOD       CLOUDY    25  21  86 SW5       30.13F WCI  19
APPLETON       CLEAR     18  16  93 SW5       30.16S FOG     WCI  11
BENSON         PTCLDY    21  19  93 CALM      30.15F
ORTONVILLE     CLEAR     19  18  93 W5        30.15F WCI  13
MADISON        CLEAR     18  16  93 CALM      30.18S
WILLMAR        CLOUDY    27  25  93 W3        30.17S
$$
MNZ033>034-036-042>043-049>051-058-059-060600-
   Central Minnesota

CITY           SKY/WX    TMP DP  RH WIND       PRES   REMARKS
ST CLOUD       CLOUDY    23  19  85 SW5       30.14F WCI  17
SAUK CENTRE    CLOUDY    23  21  91 W7        30.14S WCI  15
PAYNESVILLE    CLOUDY    25  22  89 W7        30.15F WCI  18
AITKIN         CLOUDY    27  18  69 SW3       30.08F
PINE RIVER     CLOUDY    23  19  86 CALM      30.12F FOG
BRAINERD       CLOUDY    24  19  81 W9        30.11F WCI  14
STAPLES        CLOUDY    21  19  93 W6        30.11F WCI  14
LONG PRAIRIE   CLOUDY    23  21  93 W6        30.12F WCI  16
LITTLE FALLS   CLOUDY    25  19  80 W7        30.13F WCI  17
LITCHFIELD     CLOUDY    27  25  93 W6        30.16S WCI  20
BUFFALO        PTCLDY    19  17  92 CALM      30.17F FOG
MAPLE LAKE     CLOUDY    23  22  96 CALM      30.17S FOG
$$
MNZ037-044-045-052-053-060600-
   East Central Minnesota

CITY           SKY/WX    TMP DP  RH WIND       PRES   REMARKS
PRINCETON      CLOUDY    27  21  80 S5        30.14F WCI  21
MORA           CLOUDY    25  19  80 SW6       30.15F WCI  18
CAMBRIDGE      CLOUDY    27  18  69 CALM      30.13F
RUSH CITY      CLOUDY    25  21  84 SW7       30.15F WCI  17
MOOSE LAKE     CLOUDY    27  18  69 SW5       30.09F WCI  21
HINCKLEY       CLOUDY    27  21  80 SW7       30.13F WCI  19
CLOQUET        CLOUDY    25  16  68 SW7       30.08F WCI  17
MCGREGOR       CLOUDY    27  19  74 SW7       30.09F WCI  19
$$
MNZ071>073-080-081-089-090-097-098-060600-
   Southwest Minnesota

CITY           SKY/WX    TMP DP  RH WIND       PRES   REMARKS
MONTEVIDEO     CLEAR     21  18  86 W6        30.19S WCI  14
GRANITE FALLS  CLEAR     24  22  92 SW6       30.19S WCI  17
CANBY          FOG       25  25  97 SW10      30.18S VSB 1   WCI  15
MARSHALL       CLEAR     19  17  92 W9        30.18S WCI   8
REDWOOD FALLS  CLOUDY    27  23  85 W7        30.18S WCI  19
OLIVIA         CLOUDY    28  25  86 W5        30.17S WCI  23
PIPESTONE        N/A     19  14  79 SW3       30.17F
WINDOM         CLOUDY    27  25  93 W14       30.17S WCI  15
WORTHINGTON    CLOUDY    25  21  86 W9        30.19S WCI  15
JACKSON        CLOUDY    28  27  93 W12       30.18S WCI  18
TRACY          CLEAR     21  19  92 SW7       30.18S WCI  12
SLAYTON        CLEAR     22  22 100 W10       30.17F WCI  11
$$
MNZ065>067-074>077-082>085-091>093-060600-
   South Central Minnesota

CITY           SKY/WX    TMP DP  RH WIND       PRES   REMARKS
MANKATO        CLOUDY    27  21  80 SW8       30.18S WCI  18
NEW ULM        CLOUDY    25  21  86 W5        30.18S FOG     WCI  19
ST JAMES       CLOUDY    27  25  93 SW6       30.20S FOG     WCI  20
FAIRMONT       CLOUDY    27  21  80 SW8       30.18S WCI  18
GLENCOE        CLEAR     20  19  97 CALM      30.16F FOG
FARIBAULT      CLOUDY    25  23  93 SW8       30.19S FOG     WCI  16
OWATONNA       CLOUDY    25  23  93 SW12      30.18S FOG     WCI  14
WASECA         CLOUDY    27  23  86 SW12      30.20S FOG     WCI  16
ALBERT LEA     CLOUDY    25  25 100 SW8       30.19F FOG     WCI  16
$$
MNZ078>079-086>088-094>096-060600-
   Southeast Minnesota

CITY           SKY/WX    TMP DP  RH WIND       PRES   REMARKS
ROCHESTER      CLOUDY    23  20  88 SW16      30.19S WCI  10
RED WING       CLOUDY    27  19  74 W9        30.20S WCI  17
STANTON        CLOUDY    27  23  85 SW9       30.18S WCI  18
DODGE CENTER   CLOUDY    21  21 100 SW15      30.17S FOG     WCI   8
WINONA         CLOUDY    28  21  74 S6        30.23F WCI  22
AUSTIN         CLOUDY    23  21  93 S9        30.20S FOG     WCI  13
PRESTON        CLOUDY    22  19  89 S10       30.20F WCI  11
$$
ABBREVIATIONS USED IN REMARKS
   TC - TEMPERATURES IN CELSIUS
  WCI - WIND CHILL INDEX
   HX - HEAT INDEX
  VSB - VISIBILITY
$$




USA.gov is the U.S. government's official web portal to all federal, state and local government web resources and services.